Location: Artiguedieu
(43.5000°N, 0.5454°E)
Time: 10:33:26
(UTC+00:00)

Vanguard 1 Rocket - Pass Details

Date: 31 July 2021
Orbit: 650 x 4226 km, 34.3° (Epoch: 24 September)

Event Time Altitude Azimuth Distance (km) Brightness Sun altitude
Rises 07:52:34 0° 208° (SSW) 8,424 12.1 31.9°
Reaches altitude 10° 08:00:06 10° 199° (SSW) 7,178 11.9 33.3°
Maximum altitude 08:17:26 28° 150° (SSE) 4,647 11.8 36.4°
Drops below altitude 10° 08:28:58 10° 99° (E) 4,785 12.3 38.4°
Sets 08:32:37 0° 87° (E) 5,330 12.2 39.1°
